Regional Weather Roundup
Issued by NWS Wakefield, VA

Home | Current Version | Previous Version | Text Only | Print | Product List | Glossary Off
Versions: 1 2 3 4 5 6 7 8 9 10 11 12 13 14 15 16 17 18 19 20 21 22 23 24 25 26 27 28 29 30 31 32 33 34 35 36 37 38 39 40 41 42 43 44 45 46 47 48 49 50

000
ASUS41 KAKQ 161210
RWRAKQ

REGIONAL WEATHER ROUNDUP
NATIONAL WEATHER SERVICE WAKEFIELD VA
800 AM EDT TUE SEP 16 2014

Note: "fair" indicates few or no clouds below 12,000 feet with no
significant weather and/or obstructions to visibility. * = Denotes
station may not report precipitation (e.g., rain,snow,etc.),
thunder or fog.

VAZ042-051-052>054-056-161300-
NORTHERN VIRGINIA

CITY           SKY/WX    TMP DP  RH WIND       PRES   REMARKS
WASH NATIONAL  MOSUNNY   69  58  67 W6        30.03R
DULLES         MOSUNNY   59  59 100 CALM      30.03S
FORT BELVOIR   MOSUNNY   62  61  96 CALM      30.03S
QUANTICO       PTSUNNY   64  61  90 NW3       30.03S
FREDERICKSBRG* MOSUNNY   63  63 100 SW3       30.03R
STAFFORD*      CLOUDY    60  60 100 CALM      30.08R FOG
WARRENTON      MOSUNNY   62  62 100 CALM      30.03S FOG
CULPEPER*      MOSUNNY  N/A N/A N/A CALM      30.05R HAZE
MANASSAS*      NOT AVBL
LEESBURG*      MOSUNNY   61  61 100 CALM      30.05R
WINCHESTER     CLOUDY    63  55  77 CALM      30.05R
FRONT ROYAL*   CLOUDY    59  57  94 CALM      30.05S
LURAY*         CLOUDY    61  61 100 CALM      30.05S
$$

VAZ048-049-060>072-079>083-161300-
CENTRAL AND SOUTH CENTRAL VIRGINIA...AND NORTH CENTRAL NORTH CAROLINA

CITY           SKY/WX    TMP DP  RH WIND       PRES   REMARKS
RICHMOND       MOSUNNY   68  64  87 SW5       30.03R
CHESTERFIELD*  CLOUDY    64  55  72 CALM      30.05S
PETERSBURG*    FOG       64  63  96 SW3       30.05R VSB 1/4
HANOVER        MOSUNNY   66  65  96 NW6       30.05R FOG
TAPPAHANNOCK*  CLOUDY    65  63  92 CALM      30.04S FOG
CHARLOTTSVILLE FOG       61  60  97 CALM      30.04R VSB 1/4
ORANGE*        CLOUDY    61  59  94 CALM      30.05S FOG
LOUISA*        FOG       64  63  94 CALM      30.03S VSB 1/2
FARMVILLE*     CLOUDY    63  63 100 CALM      30.02S FOG
CREWE*         SUNNY     66  64  93 CALM      30.04R
FORT PICKETT*  MOSUNNY   65  64  97 W3        30.05R
LUNENBURG*     CLOUDY    66  65  97 CALM      30.05R
SOUTH HILL*    CLOUDY    68  68 100 W5        30.10S FOG
LAWRENCEVILLE* PTSUNNY   65  65 100 CALM      30.05S
ROANOKE RAPIDS CLOUDY    64  64 100 SW5       30.06R FOG
RALEIGH        PTSUNNY   69  66  90 CALM      30.07R FOG
$$

VAZ088>098-161300-
SOUTHEAST VIRGINIA

CITY           SKY/WX    TMP DP  RH WIND       PRES   REMARKS
NORFOLK        PTSUNNY   69  64  84 SW12      30.03S
VIRGINIA BEACH PTSUNNY   68  65  90 SW10      30.03R
NORFOLK NAVAL  PTSUNNY   71  65  81 SW7       30.05R
WEST POINT*    NOT AVBL
NEWPORT NEWS   PTSUNNY   73  65  75 SW8       30.03S
LANGLEY AFB    SUNNY     70  69  96 W9        30.03R
FORT EUSTIS    CLOUDY    68 N/A N/A W2        30.02S
WILLIAMSBURG*  CLOUDY    70  66  88 CALM      30.04S
HR EXEC AP*    PTSUNNY   66  63  88 SW5       30.06S
FRANKLIN*        N/A     66 N/A N/A S5        30.04S
WAKEFIELD      MOSUNNY   67  64  90 VRB3      30.04R FOG
$$

VAZ020-022-025-037-045-161300-
WEST CENTRAL AND SOUTHWEST VIRGINIA

CITY           SKY/WX    TMP DP  RH WIND       PRES   REMARKS
STAUNTON*      SUNNY     59  57  94 CALM      30.08S FOG
HOT SPRINGS VA CLOUDY    54  51  92 W9        30.16R
LYNCHBURG      SUNNY     61  61 100 CALM      30.07S
DANVILLE       MOSUNNY   65  63  93 SW3       30.07S FOG
SOUTH BOSTON*  NOT AVBL
MARTINSVILLE   FOG       62  62 100 CALM      30.10S VSB<1/4
ROANOKE        MOSUNNY   67  57  70 NW12      30.09S
BLACKSBURG     MOSUNNY   64  63  94 W3        30.14R
DUBLIN*        MOCLDY    63  60  90 CALM      30.13S
MARION*        CLOUDY    64  62  94 SW5       30.16S FOG
HILLSVILLE*    MOCLDY    62  60  93 NW10      30.13S
RICHLANDS*     CLOUDY    65  63  91 W5        30.14S
WISE*          CLOUDY    63  61  94 CALM      30.16S
ABINGDON*      CLOUDY    66  66 100 SW7       30.13S FOG
$$

MDZ021>025-VAZ099-100-161300-
SOUTHERN MARYLAND AND THE DELMARVA PENINSULA

CITY           SKY/WX    TMP DP  RH WIND       PRES   REMARKS
PATUXENT RIVER MOSUNNY   67  64  90 W6        30.01S
BAY BRIDGE APT   N/A     66  61  82 W8        30.01R
LEONARDTOWN    SUNNY     64  63  94 W6        30.04R
DOVER          PTSUNNY   63  63 100 S6        29.98F
GEORGETOWN     MOSUNNY   64  62  93 S6        30.01S FOG
EASTON         NOT AVBL
CAMBRIDGE      SUNNY     68  63  83 CALM      30.01R
SALISBURY        N/A    N/A N/A N/A MISG      30.00
OCEAN CITY     CLOUDY    70  64  81 W7        30.00F
WALLOPS ISLAND LGT RAIN  68  65  90 W6        30.02R
ACCOMACK*      CLOUDY    68  63  83 W8        30.02S
$$

NCZ012>017-030>032-161300-
EASTERN NORTH CAROLINA

CITY           SKY/WX    TMP DP  RH WIND       PRES   REMARKS
ELIZABETH CITY MOSUNNY   69  67  93 SW3       30.05
AHOSKIE*       MOSUNNY   66  65  96 CALM      30.05S
EDENTON*       CLOUDY    72  68  87 SW6       30.05S
CURRITUCK*     MOSUNNY   67  65  93 CALM      30.05S
KILL DEVIL HLS MOSUNNY   71  66  84 CALM      30.04S
MANTEO         MOSUNNY   72  66  81 SW5       30.05S
CAPE HATTERAS  PTSUNNY   70  68  93 NW3       30.06R
TARBORO*       PTSUNNY   68  66  93 CALM      30.07R
GOLDSBORO      MOSUNNY   69  69  99 CALM      30.04S
WASHINGTON     PTSUNNY   69  66  91 CALM      30.06S
GREENVILLE     MOSUNNY   70  68  94 CALM      30.07S FOG
NEW BERN       CLOUDY    72  67  84 CALM      30.06F
WILMINGTON     CLOUDY    72  71  97 CALM      30.04S
$$

VAZ048-161300-
ELSEWHERE

CITY           SKY/WX    TMP DP  RH WIND       PRES   REMARKS
HARRISBURG PA  MOSUNNY   58  55  90 NW6       30.02R
BALTIMORE      MOSUNNY   62  59  90 SW5       30.01R
ANNAPOLIS      PTSUNNY   65  60  84 W6        30.00S
ANDREWS AFB    MOSUNNY   65  62  89 VRB1      30.02R
WILMINGTON DE  MOSUNNY   62  60  93 CALM      29.99F
PHILADELPHIA   PTSUNNY   64  60  87 SW3       29.99F
WILDWOOD NJ*   CLOUDY    64  64 100 S7        30.01S
ATLANTIC CITY  CLOUDY    66  60  81 S3        30.00R
HENDERSON NC   SUNNY     67  65  94 W3        30.06S FOG
GREENSBORO     PTSUNNY   69  66  90 NW3       30.07S
ROCKY MOUNT    CLOUDY    69  67  93 SW5       30.06S FOG
FAYETTEVILLE   CLOUDY    72  70  93 CALM      30.06R FOG
CHARLOTTE      CLOUDY    72  68  88 CALM      30.08R
$$

VAZ100-161300-
MARINE

STATION/POSITION TIME  TEMP    WIND        PRES    WAVE   SWELL
                       AIR SEA DIR/SP/G            HT/PER HT/PER
                 (UTC) (F)     (DEG/KT/KT) (MB)    (FT/S) (FT/S)
44066 TX TWR #4  1200   68 73  100/  4/  6 1016.1F   2/ 7   2/ 7
CAPE MAY NJ      1200   65 75  170/  5/  7 1015.4S
LEWES DE         1200   66 72  190/  5/  7 1015.5F
15NM E FENWICK I 1200   70 72              1015.4F   2/12
OCEAN-CITY-INLET 1200          240/  7/ 10 1015.3F
WACHAPREAGUE VA  1200   70 72  250/  5/  7 1016.5S
THOMAS POINT MD  1200   66 74  300/  9/ 11 1017.0S
GOOSES REEF MD   1200   68     270/  8/ 10 1016.7S
COVE POINT MD    1200   67     270/  5/  7 1016.1F
SOLOMONS ISLAND  1200      76                N/A
BISHOPS HEAD MD  1200   70 71  280/ 12/ 14 1015.9S
PINEY POINT MD   1200          290/  8/ 10   N/A
POTOMAC MD       1200   69     280/ 10/ 12 1015.8S
CAMBRIDGE MD     1200   68 75  240/  5/  7 1015.9R
LEWISETTA VA     1200   68 73  260/  6/  8 1016.0F
RAPPAHANNOCK LGT 1200          250/ 14/ 15 1017.0S
STINGRAY PT      1200   69     260/ 10/ 12   N/A
YORK RVR RNG VA  1200   71     280/ 12/ 13 1016.2F
YORKTOWN VA      1200   69 76  260/  6/  7 1016.7R
JAMESTOWN VA     1200   68     300/  6/  8   N/A
DOMINION TERM VA 1200   68     230/  9/ 11 1017.1R
KIPTOPEKE VA     1200      78  240/ 12/ 15   N/A
CHES BAY BRIDGE  1200          200/ 11/ 14 1016.3R
CAPE HENRY VA    1200   68     200/  8/ 10 1015.7F
CHESAPEAKE LGHT  1100   71     230/ 16/ 17 1017.4F
WILLOUBY STN VA  1200   69     230/ 15/ 17 1015.4F
S CRANEY ISL VA  1200          180/  6/  8 1016.8S
CAPE HENRY BUOY  1200      75                N/A     2/13
1ST LANDING BUOY 1200   70     220/ 14/ 16 1016.6S
CAPE CHARLES BUO 1200      75                N/A     2/ 3   2/13
OFFSHORE WE BUOY 1200      74                N/A     2/13   2/13
64NM E OF VA BCH 1200   74 78  240/ 10/ 12 1016.7F   2/ 8   2/ 8
DUCK PIER NC     1200   72 76  230/  6/  8 1016.7S
44100 DUCK FRF   1200      74                N/A     2/13
44056 DUCK FRF   1200                        N/A     2/ 8
OREGON INLET NC  1200   73 74  240/  3/  4 1017.5F
HATTERAS NC      1200   74 77  270/  4/  4 1018.1F
DIAMOND SHLS NC  1200   76     290/ 10/ 12 1017.6R   2/ 8   2/ 8
CAPE LOOKOUT NC  1100   76     360/  3/  4 1017.4R
$$



USA.gov is the U.S. government's official web portal to all federal, state and local government web resources and services.